Location: Newark
(27.9675°N, 86.8869°E)
Time: 07:42:47
(UTC+00:00)

Altair - Pass Details

Date: 28 October 2019
Orbit: 1502 x 1682 km, 47.2° (Epoch: 16 November)

Event Time Altitude Azimuth Distance (km) Brightness Sun altitude
Rises 09:25:35 0° 312° (NW) 4,823 10.3 24.8°
Reaches altitude 10° 09:28:42 10° 315° (NW) 3,859 9.9 24.2°
Maximum altitude 09:38:37 71° 39° (NE) 1,739 8.0 22.3°
Drops below altitude 10° 09:48:44 10° 123° (ESE) 3,936 9.4 20.4°
Sets 09:51:56 0° 125° (SE) 4,923 9.9 19.8°
